This demonstration page uses our WeatherBlox Daily Observations layout. Learn more.

Left ArrowRight Arrow

38.88101, -77.10428

Hourly Observations for November 3, 2021

Temp ( °F °C ) Dew Point ( °F °C ) Humidity (%) Winds ( mph kmh ) Pressure ( in mb ) Visibility ( mi km ) Precip ( " mm )
12:52 am 00:52 Clear 44 6.7 38 3.3 79 79 W 5 7 30.27 1025 10 16 0.00 0.00
1:52 am 01:52 Clear 43 6.1 38 3.3 82 82 Calm 30.29 1026 10 16 0.00 0.00
2:52 am 02:52 Clear 43 6.1 37 2.8 80 80 NNW 6 9 30.29 1026 10 16 0.00 0.00
3:52 am 03:52 Clear 43 6.1 36 2.2 76 76 NNW 9 15 30.29 1026 10 16 0.00 0.00
4:52 am 04:52 Clear 41 5 35 1.7 79 79 NW 7 11 30.29 1026 10 16 0.00 0.00
5:52 am 05:52 Clear 39 3.9 36 2.2 89 89 Calm 30.31 1026 10 16 0.00 0.00
6:52 am 06:52 Mostly Clear 38 3.3 36 2.2 93 93 Calm 30.32 1027 10 16 0.00 0.00
7:52 am 07:52 Mostly Sunny 40 4.4 33 0.6 77 77 NNW 5 7 30.33 1027 10 16 0.00 0.00
8:52 am 08:52 Mostly Sunny 43 6.1 33 0.6 68 68 Calm 30.35 1028 10 16 0.00 0.00
9:52 am 09:52 Mostly Sunny 45 7.2 33 0.6 63 63 NW 5 7 30.37 1028 10 16 0.00 0.00
10:52 am 10:52 Mostly Sunny 49 9.4 30 -1.1 48 48 WNW 9 15 30.37 1028 10 16 0.00 0.00
11:52 am 11:52 Mostly Sunny 50 10 30 -1.1 46 46 NNW 13 20 30.36 1028 10 16 0.00 0.00
12:52 pm 12:52 Mostly Sunny 51 10.6 29 -1.7 43 43 NW 10 17 30.35 1028 10 16 0.00 0.00
1:52 pm 13:52 Partly Cloudy 52 11.1 27 -2.8 38 38 NW 12 19 30.32 1027 10 16 0.00 0.00
2:52 pm 14:52 Mostly Sunny 53 11.7 27 -2.8 37 37 NW 15 24 30.30 1026 10 16 0.00 0.00
3:52 pm 15:52 Mostly Cloudy 52 11.1 26 -3.3 37 37 NNW 10 17 30.30 1026 10 16 0.00 0.00
4:52 pm 16:52 Mostly Cloudy 51 10.6 26 -3.3 38 38 NNW 10 17 30.31 1026 10 16 0.00 0.00
5:52 pm 17:52 Mostly Cloudy 50 10 25 -3.9 38 38 NW 10 17 30.31 1026 10 16 0.00 0.00
6:52 pm 18:52 Mostly Cloudy 49 9.4 26 -3.3 41 41 NNW 7 11 30.32 1027 10 16 0.00 0.00
7:52 pm 19:52 Mostly Cloudy 48 8.9 27 -2.8 44 44 NNW 6 9 30.35 1028 10 16 0.00 0.00
8:52 pm 20:52 Cloudy 47 8.3 28 -2.2 48 48 N 6 9 30.35 1028 10 16 0.00 0.00
9:52 pm 21:52 Cloudy 48 8.9 28 -2.2 46 46 NNE 7 11 30.36 1028 10 16 0.00 0.00
10:52 pm 22:52 Cloudy 47 8.3 31 -0.6 54 54 ENE 5 7 30.36 1028 10 16 0.00 0.00
11:52 pm 23:52 Cloudy 47 8.3 32 0 56 56 Calm 30.36 1028 10 16 0.00 0.00

Powered by AerisWeather